THORAD DELTA 1 DEB, 8173

Orbit data source: Space-Track

THORAD DELTA 1 DEB, 8173 is space debris in SSO originally from a launch on Fri, 15 Nov 1974 UTC launched from the Air Force Western Test Range (AFWTR). Debris objects in space refer to the collection of defunct objects orbiting the Earth. Examples of debris include non-operational satellites, rocket bodies, and fragments generated from explosions, collisions, or faulty payload assembly.

Loading next visibility...
Identifier
8173, 1974-089AP
Orbit
SSO
Country
Flag of USUS
Related business
Manufacturer
Unknown
Mission
Spacecraft
Bus & Motor
Unknown
Mass
Unknown
Launch date (UTC)
1974-11-15 (51 years ago)
Launch vehicle
Unknown
Launch site
Air Force Western Test Range (AFWTR)
Object type
Payload
Rocket body
Debris
Shape & HBR
Unknown
Radar Cross Section
Small (<0.1 m²)

Expand to show TLE details & history
Last TLE update: 4 days ago

TLE from 4 days ago
0 THORAD DELTA 1 DEB
1 08173U 74089AP  25254.39505944  .00000004  00000-0  31598-3 0  9997
2 08173 101.9589 230.2110 0108612 298.2890 223.0618 12.51834594320109
Epoch: 2025-09-11T09:28Z
TLE epoch observation values (Epoch: 2025-09-11T09:28:53.135Z)
Latitude
19.05124°
Longitude
-78.49408°
Altitude
1,521.545 km
Speed
7.078 km/s
True Right ascension
03h 37m 32s
True Declination
18° 57' 20"
Sunlit
Object was in daylight at epoch
Visualization orbit readout
Latitude
Unknown
Longitude
Unknown
Altitude
Unknown
Speed
Unknown
Apparent Right ascension
Unknown
Apparent Declination
Unknown
Sunlit
N/A
Visualization observer readout
Local Sidereal Time
02:06:35
Azimuth
Unknown
Elevation
Unknown
Doppler factor
Unknown
Orbital elements
Apogee altitude
1,539.458 km
Perigee altitude
1,369.316 km
Semi-major axis
7,832.524 km
Eccentricity
0.01086
Inclination
101.9589°
RAAN
230.211°
Arg. of periapsis
298.289°
True anomaly
222.22038°
Mean anomaly
223.0618°
Eccentric anomaly
222.64026°
Mean motion
3.13105 °/min
Orbital period
114.98 mins
BSTAR
0.00031598
Loading maneuver chart data...
Computing Atmospheric mass density...
Loading historical data...
Loading historical data...
Loading historical data...
Loading historical data...
Loading historical data...
Loading historical data...
Loading historical data...

Documentation

Showing up to 5 results
|